Latest Coastal Weather Observations for Eucla

IDW60701

Issued at 4:05 am WST Monday 22 September 2014 (issued every 10 minutes, with the page automatically refreshed every 10 minutes)

About coastal observations | Map of coastal stations | Coastal observations for WA | Marine services | Other Formats
Station Details ID: 011003 Name: EUCLA Lat: -31.68 Lon: 128.90 Height: 93.1 m
Data from the previous 72 hours. | See also: Recent months at Eucla
Date/Time
WST
Temp

°C
Wind Pressure Rain
since 9am
mm
Weather Cloud Vis
km
Sea
Height
m
Swell
Dir
 
Speed
knots
Gust
knots
hPa Trend Height
m
Period
s
Dir
22/04:00am 19.7 N 21 33 1010.3 - 0.0 - - - - - - -
22/03:30am 20.0 N 21 33 1010.5 - 0.0 - - - - - - -
22/03:00am 20.3 N 21 36 1010.6 - 0.0 - - - - - - -
22/02:30am 20.6 N 21 31 1010.6 - 0.0 - - - - - - -
22/02:00am 20.8 N 22 34 1010.8 - 0.0 - - - - - - -
22/01:30am 21.0 NNE 21 32 1011.2 - 0.0 - - - - - - -
22/01:00am 21.4 N 21 33 1011.7 - 0.0 - - - - - - -
22/12:30am 21.4 NNE 21 31 1012.3 - 0.0 - - - - - - -
22/12:00am 21.7 NNE 20 33 1012.8 - 0.0 - - - - - - -
 
Date/Time
WST
Temp

°C
Wind Pressure Rain
since 9am
mm
Weather Cloud Vis
km
Sea
Height
m
Swell
Dir
 
Speed
knots
Gust
knots
hPa Trend Height
m
Period
s
Dir
21/11:30pm 21.8 NNE 21 31 1013.3 - 0.0 - - - - - - -
21/11:00pm 22.0 N 20 34 1013.7 - 0.0 - - - - - - -
21/10:30pm 22.3 NNE 20 30 1014.1 - 0.0 - - - - - - -
21/10:00pm 22.5 NNE 20 32 1014.4 - 0.0 - - - - - - -
21/09:30pm 23.0 NNE 19 30 1014.8 - 0.0 - - - - - - -
21/09:00pm 23.2 NNE 19 29 1015.1 - 0.0 - - - - - - -
21/08:56pm 23.1 NNE 19 29 1015.2 - 0.0 - - - - - - -
21/08:30pm 23.4 NNE 18 27 1015.3 - 0.0 - - - - - - -
21/08:03pm 23.8 NNE 16 26 1015.5 - 0.0 - - - - - - -
21/08:00pm 23.9 NNE 17 26 1015.5 - 0.0 - - - - - - -
21/07:38pm 24.1 NNE 17 27 1015.5 - 0.0 - - - - - - -
21/07:30pm 24.4 NNE 17 24 1015.5 - 0.0 - - - - - - -
21/07:00pm 24.9 NNE 15 24 1015.4 - 0.0 - - - - - - -
21/06:30pm 25.5 NNE 13 20 1015.3 - 0.0 - - - - - - -
21/06:00pm 26.3 NNE 14 21 1014.9 - 0.0 - - - - - - -
21/05:30pm 27.1 NNE 13 21 1014.7 - 0.0 - - - - - - -
21/05:00pm 28.2 NNE 14 21 1014.6 - 0.0 - - - - - - -
21/04:36pm 29.0 NNE 16 27 1014.6 - 0.0 - - - - - - -
21/04:30pm 29.2 NNE 15 24 1014.6 - 0.0 - - - - - - -
21/04:00pm 29.8 NNE 15 28 1014.5 - 0.0 - - - - - - -
21/03:30pm 30.4 N 18 29 1014.7 - 0.0 - - - - - - -
21/03:00pm 30.8 NNE 17 28 1014.8 - 0.0 Fine Clear 40 - - - -
21/02:36pm 31.2 NNE 15 25 1014.8 - 0.0 - - - - - - -
21/02:30pm 31.1 NNE 16 23 1014.9 - 0.0 - - - - - - -
21/02:00pm 31.4 NNE 17 27 1015.2 - 0.0 - - - - - - -
21/01:30pm 31.0 NNE 17 28 1015.7 - 0.0 - - - - - - -
21/01:00pm 31.0 NNE 19 30 1016.1 - 0.0 - - - - - - -
21/12:34pm 30.7 NNE 17 27 1016.6 - 0.0 - - - - - - -
21/12:30pm 30.8 NNE 19 26 1016.6 - 0.0 - - - - - - -
21/12:03pm 30.3 NNE 17 27 1017.0 - 0.0 - - - - - - -
21/12:00pm 30.2 NNE 19 27 1017.3 - 0.0 - - - - - - -
21/11:30am 29.9 N 19 31 1017.9 - 0.0 - - - - - - -
21/11:00am 29.9 N 19 30 1018.5 - 0.0 - - - - - - -
21/10:30am 28.9 N 20 31 1019.2 - 0.0 - - - - - - -
21/10:09am 27.8 N 16 26 1019.6 - 0.0 - - - - - - -
21/10:00am 27.6 N 18 26 1019.8 - 0.0 - - - - - - -
21/09:31am 26.2 N 17 27 1020.3 - 0.0 - - - - - - -
21/09:30am 26.2 N 17 26 1020.3 - 0.0 - - - - - - -
21/09:15am 25.4 N 17 27 1020.5 - 0.0 - - - - - - -
21/09:00am 24.6 N 17 25 1020.6 - 0.2 Fine Clear 40 - - - -
21/08:47am 23.7 N 15 27 1020.9 - 0.2 - - - - - - -
21/08:30am 22.2 N 15 23 1021.1 - 0.2 - - - - - - -
21/08:00am 19.5 N 13 19 1021.5 - 0.0 - - - - - - -
21/07:30am 16.5 NNE 12 18 1021.6 - 0.0 - - - - - - -
21/07:00am 14.4 NNE 12 18 1021.7 - 0.0 - - - - - - -
21/06:30am 12.4 NNE 11 17 1021.7 - 0.0 - - - - - - -
21/06:00am 10.6 NNE 10 15 1021.6 - 0.0 - - - - - - -
21/05:30am 9.5 N 8 11 1021.5 - 0.0 - - - - - - -
21/05:00am 9.5 NNE 8 11 1021.3 - 0.0 - - - - - - -
21/04:30am 9.8 NNE 8 10 1021.4 - 0.0 - - - - - - -
21/04:00am 10.4 NNE 9 13 1021.3 - 0.0 - - - - - - -
21/03:30am 10.1 NNE 9 13 1021.2 - 0.0 - - - - - - -
21/03:00am 9.7 NE 9 12 1021.3 - 0.0 - - - - - - -
21/02:30am 10.2 NE 9 13 1021.4 - 0.0 - - - - - - -
21/02:00am 10.0 NE 8 13 1021.8 - 0.0 - - - - - - -
21/01:30am 10.2 NE 8 10 1022.1 - 0.0 - - - - - - -
21/01:00am 10.8 NE 7 9 1022.4 - 0.0 - - - - - - -
21/12:30am 11.3 ENE 6 8 1022.7 - 0.0 - - - - - - -
21/12:00am 12.1 ENE 7 10 1022.9 - 0.0 - - - - - - -
 
Date/Time
WST
Temp

°C
Wind Pressure Rain
since 9am
mm
Weather Cloud Vis
km
Sea
Height
m
Swell
Dir
 
Speed
knots
Gust
knots
hPa Trend Height
m
Period
s
Dir
20/11:30pm 12.5 E 7 9 1023.1 - 0.0 - - - - - - -
20/11:00pm 12.7 E 6 8 1023.2 - 0.0 - - - - - - -
20/10:30pm 13.1 E 7 9 1023.6 - 0.0 - - - - - - -
20/10:00pm 13.4 E 7 9 1023.7 - 0.0 - - - - - - -
20/09:30pm 13.6 E 7 11 1023.9 - 0.0 - - - - - - -
20/09:00pm 13.7 E 8 14 1023.9 - 0.0 - - - - - - -
20/08:30pm 13.7 E 8 11 1023.8 - 0.0 - - - - - - -
20/08:00pm 13.9 ESE 7 10 1023.9 - 0.0 - - - - - - -
20/07:30pm 13.9 ESE 7 10 1023.7 - 0.0 - - - - - - -
20/07:00pm 14.0 ESE 8 11 1023.5 - 0.0 - - - - - - -
20/06:30pm 14.0 ESE 7 10 1023.4 - 0.0 - - - - - - -
20/06:00pm 14.0 ESE 7 9 1023.3 - 0.0 - - - - - - -
20/05:30pm 14.3 ESE 6 9 1023.2 - 0.0 - - - - - - -
20/05:00pm 15.2 ESE 7 11 1022.9 - 0.0 - - - - - - -
20/04:30pm 15.8 ESE 8 12 1022.8 - 0.0 - - - - - - -
20/04:00pm 16.4 ESE 10 14 1022.6 - 0.0 - - - - - - -
20/03:30pm 17.2 ESE 9 13 1022.5 - 0.0 - - - - - - -
20/03:00pm 17.7 ESE 10 14 1022.4 - 0.0 Fine Clear 40 - - - -
20/02:30pm 18.6 ESE 9 16 1022.1 - 0.0 - - - - - - -
20/02:00pm 18.8 ESE 9 14 1022.2 - 0.0 - - - - - - -
20/01:30pm 19.1 ESE 9 14 1022.2 - 0.0 - - - - - - -
20/01:00pm 18.7 ESE 10 16 1022.4 - 0.0 - - - - - - -
20/12:30pm 18.8 ESE 11 18 1022.7 - 0.0 - - - - - - -
20/12:00pm 18.3 ESE 9 15 1023.1 - 0.0 - - - - - - -
20/11:30am 18.6 SE 10 16 1023.4 - 0.0 - - - - - - -
20/11:00am 18.5 SE 11 17 1023.6 - 0.0 - - - - - - -
20/10:30am 18.3 SE 10 16 1023.9 - 0.0 - - - - - - -
20/10:00am 18.4 ESE 10 16 1024.0 - 0.0 - - - - - - -
20/09:30am 18.5 SE 9 13 1024.2 - 0.0 - - - - - - -
20/09:00am 18.6 SE 8 13 1024.3 - 0.0 Fine Mostly clear 40 - - - -
20/08:30am 17.6 SE 8 11 1024.5 - 0.0 - - - - - - -
20/08:00am 17.6 ESE 7 13 1024.5 - 0.0 - - - - - - -
20/07:30am 16.4 SSE 7 9 1024.4 - 0.0 - - - - - - -
20/07:00am 15.5 SSE 5 7 1024.1 - 0.0 - - - - - - -
20/06:30am 14.2 SE 3 4 1023.8 - 0.0 - - - - - - -
20/06:00am 11.6 S 4 5 1023.7 - 0.0 - - - - - - -
20/05:30am 10.9 SSW 4 4 1023.4 - 0.0 - - - - - - -
20/05:00am 11.2 WSW 5 6 1023.2 - 0.0 - - - - - - -
20/04:30am 11.5 WSW 5 7 1022.9 - 0.0 - - - - - - -
20/04:00am 11.3 SW 6 8 1022.6 - 0.0 - - - - - - -
20/03:30am 11.4 WSW 6 8 1022.2 - 0.0 - - - - - - -
20/03:00am 11.1 WSW 6 8 1022.0 - 0.0 - - - - - - -
20/02:30am 10.7 WSW 7 9 1021.8 - 0.0 - - - - - - -
20/02:00am 10.6 WSW 7 8 1021.5 - 0.0 - - - - - - -
20/01:30am 10.5 WSW 5 8 1021.4 - 0.0 - - - - - - -
20/01:00am 8.4 SSW 5 6 1021.5 - 0.0 - - - - - - -
20/12:30am 8.3 SE 4 5 1021.5 - 0.0 - - - - - - -
20/12:00am 9.2 S 4 5 1021.6 - 0.0 - - - - - - -
 
Date/Time
WST
Temp

°C
Wind Pressure Rain
since 9am
mm
Weather Cloud Vis
km
Sea
Height
m
Swell
Dir
 
Speed
knots
Gust
knots
hPa Trend Height
m
Period
s
Dir
19/11:30pm 10.3 N 2 6 1021.7 - 0.0 - - - - - - -
19/11:00pm 10.8 NNE 5 6 1021.2 - 0.0 - - - - - - -
19/10:30pm 11.2 NNE 6 6 1021.3 - 0.0 - - - - - - -
19/10:00pm 11.9 NNE 6 7 1021.1 - 0.0 - - - - - - -
19/09:30pm 12.5 NNE 7 8 1021.1 - 0.0 - - - - - - -
19/09:00pm 12.8 NE 5 7 1021.2 - 0.0 - - - - - - -
19/08:30pm 13.1 NE 6 8 1021.2 - 0.0 - - - - - - -
19/08:00pm 13.4 NE 6 7 1021.1 - 0.0 - - - - - - -
19/07:30pm 14.0 ENE 6 9 1021.0 - 0.0 - - - - - - -
19/07:00pm 14.1 E 7 9 1020.9 - 0.0 - - - - - - -
19/06:30pm 14.3 E 6 9 1020.6 - 0.0 - - - - - - -
19/06:00pm 14.5 ESE 6 10 1020.2 - 0.0 - - - - - - -
19/05:30pm 15.0 E 8 12 1019.8 - 0.0 - - - - - - -
19/05:00pm 15.9 E 9 15 1019.3 - 0.0 - - - - - - -
19/04:30pm 16.2 E 10 16 1019.0 - 0.0 - - - - - - -
19/04:00pm 16.5 ESE 14 20 1019.0 - 0.0 - - - - - - -
19/03:30pm 17.3 SE 13 19 1019.3 - 0.0 - - - - - - -
19/03:00pm 18.1 SE 13 18 1019.0 - 0.0 Haze Partly cloudy 20 - - - -
19/02:30pm 18.7 ESE 12 17 1018.3 - 0.0 - - - - - - -
19/02:00pm 19.5 ESE 12 17 1018.4 - 0.0 - - - - - - -
19/01:30pm 18.6 ESE 13 17 1018.4 - 0.0 - - - - - - -
19/01:00pm 19.0 ESE 11 17 1018.3 - 0.0 - - - - - - -
19/12:30pm 18.6 ESE 11 18 1018.4 - 0.0 - - - - - - -
19/12:00pm 19.0 ESE 11 15 1018.4 - 0.0 - - - - - - -
19/11:30am 19.7 ESE 9 15 1018.8 - 0.0 - - - - - - -
19/11:00am 18.6 ESE 9 15 1019.5 - 0.0 - - - - - - -
19/10:30am 18.1 ESE 9 12 1020.0 - 0.0 - - - - - - -
19/10:00am 18.2 SE 9 14 1020.5 - 0.0 - - - - - - -
19/09:30am 18.5 NE 7 11 1020.9 - 0.0 - - - - - - -
19/09:00am 20.1 NE 8 15 1021.1 - 0.0 Fine Mostly clear 40 - - - -
19/08:30am 18.7 ENE 9 13 1021.4 - 0.0 - - - - - - -
19/08:00am 16.5 NE 9 13 1021.6 - 0.0 - - - - - - -
19/07:30am 14.8 NE 7 9 1021.5 - 0.0 - - - - - - -
19/07:00am 12.3 NE 9 13 1021.1 - 0.0 - - - - - - -
19/06:30am 10.4 NE 9 16 1021.2 - 0.0 - - - - - - -
19/06:00am 9.7 NE 9 16 1021.2 - 0.0 - - - - - - -
19/05:30am 9.5 NE 10 15 1020.8 - 0.0 - - - - - - -
19/05:00am 9.6 NE 9 15 1020.6 - 0.0 - - - - - - -
19/04:30am 9.7 NE 10 16 1020.2 - 0.0 - - - - - - -

Other Formats:

Comma delimited format used in spreadsheet applications
http://www.bom.gov.au/fwo/IDW60701/IDW60701.94647.axf

JavaScript Object Notation format (JSON) in row-major order
http://www.bom.gov.au/fwo/IDW60701/IDW60701.94647.json